Weather History for KMTH - March, 2015

Change the Weather History Date:

Friday, March 13, 2015

  Actual Average Record
Temperature  
Mean Temperature 80 °F 74 °F  
Max Temperature 84 °F 79 °F 87 °F (2003)
Min Temperature 75 °F 68 °F 57 °F (1998)
Degree Days  
Heating Degree Days 0 0  
Month to date heating degree days 0 0  
Since 1 July heating degree days 50 75  
Cooling Degree Days 15 9  
Month to date cooling degree days 181 107  
Year to date cooling degree days 568 489  
Growing Degree Days 28 (Base 50)    
Moisture  
Dew Point 70 °F    
Average Humidity 74    
Maximum Humidity 82    
Minimum Humidity 65    
Precipitation  
Precipitation 0.00 in 0.08 in 0.27 in (2014)
Month to date precipitation 0.11 0.99  
Year to date precipitation 2.34 4.81  
Snow  
Snow 0.00 in - - ()
Month to date snowfall 0.0  
Since 1 July snowfall 0.0  
Snow Depth 0.00 in    
Sea Level Pressure  
Sea Level Pressure 30.11 in    
Wind  
Wind Speed 12 mph (ESE)    
Max Wind Speed 17 mph    
Max Gust Speed 29 mph    
Visibility 10 miles    
Events      
T = Trace of Precipitation, MM = Missing Value Source: NWS Daily Summary

Daily Weather History Graph

Daily Weather History Graph

Search for Another Location

Airport or City:

Trip Planner

Search our weather history database for the weather conditions in past years. The results will help you decide how hot, cold, wet, or windy it might be!

Date:

Astronomy

Mar. 13, 2015 Rise Set
Actual Time 7:35 AM EDT 7:32 PM EDT
Civil Twilight 7:12 AM EDT 7:54 PM EDT
Nautical Twilight 6:46 AM EDT 8:21 PM EDT
Astronomical Twilight 6:19 AM EDT 8:47 PM EDT
Moon 1:38 AM EDT (3/13) 12:52 PM EDT (3/13)
Length of Visible Light 12h 42m
Length of Day
11h 56m
Waning Gibbous, 51% of the Moon is Illuminated
Mar 13
Waning Gibbous
Mar 13
Last Quarter
Mar 20
New
Mar 27
First Quarter
Apr 4
Full

Hourly Weather History & Observations

Time (EDT) Temp. Heat Index Dew Point Humidity Pressure Visibility Wind Dir Wind Speed Gust Speed Precip Events Conditions
12:53 AM 77.0 °F - 72.0 °F 84% 30.12 in 10.0 mi East 10.4 mph 19.6 mph N/A   Clear
1:53 AM 75.9 °F - 66.9 °F 74% 30.10 in 10.0 mi East 15.0 mph 25.3 mph N/A   Clear
2:53 AM 75.9 °F - 66.0 °F 71% 30.09 in 10.0 mi East 13.8 mph 24.2 mph N/A   Clear
3:53 AM 75.9 °F - 66.9 °F 74% 30.09 in 10.0 mi East 12.7 mph 24.2 mph N/A   Clear
4:53 AM 75.9 °F - 68.0 °F 76% 30.11 in 10.0 mi East 12.7 mph 20.7 mph N/A   Clear
5:53 AM 75.9 °F - 69.1 °F 79% 30.11 in 10.0 mi East 10.4 mph - N/A   Partly Cloudy
6:53 AM 75.9 °F - 68.0 °F 76% 30.12 in 10.0 mi East 12.7 mph 23.0 mph N/A   Partly Cloudy
7:53 AM 75.0 °F - 68.0 °F 79% 30.12 in 10.0 mi East 11.5 mph 23.0 mph N/A   Clear
8:53 AM 77.0 °F - 69.1 °F 76% 30.13 in 10.0 mi East 12.7 mph 23.0 mph N/A   Partly Cloudy
9:53 AM 80.1 °F 83.2 °F 70.0 °F 71% 30.15 in 10.0 mi ESE 9.2 mph 20.7 mph N/A   Scattered Clouds
10:53 AM 81.0 °F 84.1 °F 69.1 °F 67% 30.16 in 10.0 mi ESE 11.5 mph 19.6 mph N/A   Clear
11:53 AM 82.0 °F 85.9 °F 70.0 °F 67% 30.15 in 10.0 mi ESE 12.7 mph 21.9 mph N/A   Clear
12:53 PM 82.9 °F 87.5 °F 71.1 °F 67% 30.14 in 10.0 mi ESE 13.8 mph 21.9 mph N/A   Clear
1:53 PM 82.9 °F 88.0 °F 72.0 °F 69% 30.12 in 10.0 mi ESE 11.5 mph 19.6 mph N/A   Clear
2:53 PM 82.9 °F 88.0 °F 72.0 °F 69% 30.09 in 10.0 mi ESE 9.2 mph 18.4 mph N/A   Partly Cloudy
3:53 PM 82.9 °F 88.0 °F 72.0 °F 69% 30.08 in 10.0 mi ESE 11.5 mph 18.4 mph N/A   Scattered Clouds
4:53 PM 82.0 °F 86.7 °F 72.0 °F 71% 30.07 in 10.0 mi ESE 11.5 mph 20.7 mph N/A   Partly Cloudy
5:53 PM 80.1 °F 83.8 °F 72.0 °F 76% 30.07 in 10.0 mi ESE 11.5 mph 18.4 mph N/A   Clear
6:53 PM 79.0 °F - 70.0 °F 74% 30.08 in 10.0 mi ESE 10.4 mph 21.9 mph N/A   Clear
7:53 PM 78.1 °F - 72.0 °F 81% 30.08 in 10.0 mi ESE 10.4 mph 20.7 mph N/A   Clear
8:53 PM 77.0 °F - 71.1 °F 82% 30.09 in 10.0 mi SE 13.8 mph 23.0 mph N/A   Clear
9:53 PM 77.0 °F - 70.0 °F 79% 30.10 in 10.0 mi ESE 12.7 mph 19.6 mph N/A   Clear
10:53 PM 77.0 °F - 70.0 °F 79% 30.11 in 10.0 mi ESE 8.1 mph 17.3 mph N/A   Clear
11:53 PM 77.0 °F - 70.0 °F 79% 30.09 in 10.0 mi ESE 11.5 mph 20.7 mph N/A   Clear